This is the latest recevied weather packets stored in our database for station/object F4GQK-13. If no packets are shown the sender has not sent any weather packets the latest 10 day(s).
| Time | Temp. | Humidity | Pressure | Rain* | Wind** | Luminosity | Snow |
|---|---|---|---|---|---|---|---|
| 1777971304 | 15° C | 90% | 1009.1 hPa | 0 mm | - | 109 W/m² | - |
| 1777971005 | 15° C | 90% | 1008.9 hPa | 0 mm | - | 99 W/m² | - |
| 1777970704 | 15° C | 90% | 1009 hPa | 0 mm | - | 129 W/m² | - |
| 1777970405 | 15° C | 90% | 1008.8 hPa | 0 mm | - | 158 W/m² | - |
| 1777970105 | 15° C | 90% | 1008.9 hPa | 0 mm | - | 180 W/m² | - |
| 1777969805 | 15° C | 90% | 1008.9 hPa | 0 mm | - | 163 W/m² | - |
| 1777969505 | 15° C | 90% | 1008.9 hPa | 0 mm | - | 158 W/m² | - |
| 1777969205 | 15° C | 90% | 1009 hPa | 0 mm | - | 138 W/m² | - |
| 1777968905 | 15° C | 90% | 1008.9 hPa | 0 mm | - | 154 W/m² | - |
| 1777968604 | 15° C | 90% | 1008.9 hPa | 0 mm | - | 162 W/m² | - |
| 1777968305 | 15° C | 90% | 1008.8 hPa | 0 mm | - | 157 W/m² | - |
| 1777968006 | 14.44° C | 90% | 1009.1 hPa | 0 mm | - | 150 W/m² | - |
| 1777967706 | 14.44° C | 91% | 1009 hPa | 0 mm | - | 143 W/m² | - |
| 1777967405 | 14.44° C | 91% | 1008.9 hPa | 0 mm | - | 149 W/m² | - |
| 1777967104 | 14.44° C | 91% | 1009 hPa | 0 mm | - | 151 W/m² | - |
| 1777966805 | 14.44° C | 91% | 1008.8 hPa | 0 mm | - | 148 W/m² | - |
| 1777966505 | 14.44° C | 91% | 1009 hPa | 0 mm | - | 140 W/m² | - |
| 1777966205 | 14.44° C | 92% | 1009.1 hPa | 0 mm | - | 137 W/m² | - |
| 1777965903 | 14.44° C | 92% | 1009.2 hPa | 0 mm | - | 126 W/m² | - |
| 1777965605 | 14.44° C | 93% | 1009.3 hPa | 0 mm | - | 114 W/m² | - |
| 1777965305 | 14.44° C | 92% | 1009.3 hPa | 0 mm | - | 116 W/m² | - |
| 1777965005 | 14.44° C | 92% | 1009.3 hPa | 0 mm | - | 126 W/m² | - |
| 1777964705 | 14.44° C | 93% | 1009.3 hPa | 0 mm | - | 146 W/m² | - |
| 1777964405 | 14.44° C | 93% | 1009.3 hPa | 0 mm | - | 162 W/m² | - |
| 1777964105 | 13.89° C | 93% | 1009.2 hPa | 0 mm | - | 143 W/m² | - |
* Rain latest hour (hover to see other rain measurements)
** Current wind speed in m/s (hover to see current wind gust speed)